Starlink 5131

operational
NORAD ID: 53996 Int'l Des: 2022-125 Owner: SPXS Country: US Constellation: starlink
LEOCIRCULAR

Starlink 5131について

説明を読み込み中...

リアルタイム位置

3D地球を読み込み中...

次回通過

高度履歴

Altitude vs Time

uPlot chart will show altitude changes over time

軌道要素

1 53996U 22125AJ 25260.06677925 -.00000324 00000-0 -22931-5 0 9994
2 53996 53.2144 273.3841 0001367 83.0925 277.0223 15.08835365163259
Epoch: Sep 17, 2025 • Age: 33 hours

現在のステータス

高度 554.8 km
速度 7.58 km/s
衛星直下点 -42.60°S, 23.91°W
打ち上げ日 Oct 5, 2022
運用期間 2.9 years
タイプ internet

技術仕様

分類 Payload
質量 305.00 kg
乾燥質量 290.00 kg
総質量 305.00 kg
長さ 0.20 m
直径 2.80 m
スパン 9.00 m
形状 Box + pan
製造者 SPXS
バスタイプ Starlink
フェーズステータス In Orbit
所有者/国 SPXS/US

大規模コンステレーション

Loading constellations...